Location: Bytom
(50.3475°N, 18.9244°E)
Time: 18:30:50
(UTC+02:00)

N. Korean satellite - Visible Passes

Search period start: 20 October 2019 00:00
Search period end: 29 October 2019 23:00
Orbit: 455 x 508 km, 97.2° (Epoch: 20 October)

Date Brightness Start Highest point End Pass type
(mag) Time Alt. Az. Time Alt. Az. Time Alt. Az.
20 Oct 10.3 19:03:04 10° WSW 19:04:18 11° W 19:05:33 10° WNW visible
21 Oct 8.2 06:21:59 10° NNE 06:25:26 40° E 06:28:53 10° S visible
21 Oct 9.5 18:36:04 10° SW 18:38:45 21° W 18:41:29 10° NW visible
22 Oct 9.5 05:57:06 10° NE 05:59:59 22° E 06:02:53 10° SE visible
22 Oct 8.1 18:10:02 10° S 18:13:18 40° W 18:16:37 10° NNW visible
23 Oct 10.3 05:32:56 10° ENE 05:34:28 12° E 05:35:58 10° ESE visible
24 Oct 7.1 06:39:19 10° NNE 06:42:56 65° E 06:46:36 10° S visible
24 Oct 10.1 18:54:27 10° WSW 18:56:21 14° W 18:58:17 10° NW visible
25 Oct 8.6 06:14:12 10° NNE 06:17:33 33° E 06:20:55 10° SSE visible
25 Oct 9.1 18:27:53 10° SSW 18:30:49 26° W 18:33:49 10° NW visible
26 Oct 9.8 05:49:26 10° NE 05:52:05 19° E 05:54:43 10° SE visible
26 Oct 7.6 18:02:01 10° S 18:05:23 50° W 18:08:49 10° NNW visible
27 Oct 10.5 04:26:03 10° E 04:26:30 10° E 04:26:58 10° E visible
28 Oct 7.6 05:31:26 10° NNE 05:35:03 53° E 05:38:41 10° S visible
28 Oct 9.9 17:46:01 10° SW 17:48:22 17° W 17:50:46 10° NW visible
29 Oct 9.0 05:06:25 10° NE 05:09:38 28° E 05:12:52 10° SSE visible
29 Oct 8.7 17:19:43 10° SSW 17:22:52 31° W 17:26:04 10° NNW visible
